Regional Weather Roundup
Issued by NWS

Home | Current Version | Previous Version | Graphics & Text | Print | Product List | Glossary On
Versions: 1 2 3 4 5 6 7 8 9 10 11 12 13 14 15 16 17 18 19 20 21 22 23 24 25 26 27 28 29 30 31 32 33 34 35 36 37 38 39 40 41 42 43 44 45 46 47 48 49 50
000
ASUS43 KFSD 280902
RWRSD

WEATHER ROUNDUP FOR SOUTH DAKOTA
NATIONAL WEATHER SERVICE SIOUX FALLS SD
400 AM CDT MON JUL 28 2014

NOTE: "FAIR" INDICATES FEW OR NO CLOUDS BELOW 12,000 FEET WITH NO
SIGNIFICANT WEATHER AND/OR OBSTRUCTIONS TO VISIBILITY.


SDZ001>005-009-010-012>017-281000-
NORTHWEST AND NORTH CENTRAL SOUTH DAKOTA

CITY           SKY/WX    TMP DP  RH WIND       PRES   REMARKS
BUFFALO          N/A     54  50  86 SE8       30.29S
FAITH            N/A     52  49  89 S5        30.34S
MOBRIDGE       CLEAR     50  49  96 CALM      30.30R
$$

SDZ012>016-024>037-041>051-057-063-072>074-281000-
SOUTHWEST AND SOUTH CENTRAL SOUTH DAKOTA

CITY           SKY/WX    TMP DP  RH WIND       PRES   REMARKS
RAPID CTY ARPT CLEAR     53  49  86 CALM      30.37R
PIERRE         CLEAR     54  52  93 W3        30.31R
CUSTER         CLEAR     51  48  89 NE5       30.44S
ELLSWORTH AFB  CLEAR     57  52  83 S6        30.36S
PHILIP         CLEAR     53  49  86 CALM      30.34R
PINE RIDGE     PTCLDY    53  51  93 CALM      30.35R
WINNER         FAIR      55  52  89 W5        30.32R
$$

SDZ004>011-016>023-039-040-281000-
NORTHEAST SOUTH DAKOTA

CITY           SKY/WX    TMP DP  RH WIND       PRES   REMARKS
ABERDEEN       CLOUDY    55  53  93 NW8       30.28R
WATERTOWN      CLOUDY    59  56  89 N9        30.25S
SISSETON         N/A     60  58  92 NW9       30.24R
$$

SDZ017-020-022-023-036>040-048>070-281000-
SOUTHEAST SOUTH DAKOTA

CITY           SKY/WX    TMP DP  RH WIND       PRES   REMARKS
SIOUX FALLS    PTCLDY    56  53  90 W8        30.24R
HURON          CLEAR     50  49  96 NW6       30.26S
CHAMBERLAIN    CLEAR     52  51  97 W5        30.30S
MITCHELL       CLEAR     55  53  93 NW7       30.27S
YANKTON        CLEAR     55  54  94 NW8       30.25S
$$

ABBREVIATIONS USED IN REMARKS
   TC - TEMPERATURE IN CELSIUS
  WCI - WIND CHILL INDEX
   HX - HEAT INDEX
  VSB - VISIBILITY



USA.gov is the U.S. government's official web portal to all federal, state and local government web resources and services.